Regional Weather Roundup
Issued by NWS

Home | Current Version | Previous Version | Graphics & Text | Print | Product List | Glossary On
Versions: 1 2 3 4 5 6 7 8 9 10 11 12 13 14 15 16 17 18 19 20 21 22 23 24 25 26 27 28 29 30 31 32 33 34 35 36 37 38 39 40 41 42 43 44 45 46 47 48 49 50
000
ASUS43 KTOP 202359
RWRKS

WEATHER ROUNDUP FOR KANSAS
NATIONAL WEATHER SERVICE GOODLAND KS
700 PM CDT FRI APR 20 2018

NOTE:  "FAIR" INDICATES FEW OR NO CLOUDS BELOW 12,000 FEET WITH NO
SIGNIFICANT WEATHER AND/OR OBSTRUCTIONS TO VISIBILITY.

KSZ001>006-013>018-027>032-041>047-210100-
NORTHWEST KANSAS

CITY           SKY/WX    TMP DP  RH WIND       PRES   REMARKS
GOODLAND       CLOUDY    41  37  86 E17G24    30.10F
6HR MIN TEMP:  40; 6HR MAX TEMP:  44; 6HR PCP:  0.03;

HAYS           CLOUDY    56  33  42 E13       30.13F
HILL CITY      LGT RAIN  50  39  66 NE15      30.14F
6HR MIN TEMP:  49; 6HR MAX TEMP:  55; 6HR PCP:  0.01;

RUSSELL        CLOUDY    57  32  38 E12       30.15S
6HR MIN TEMP:  55; 6HR MAX TEMP:  63;

$$

KSZ061>065-074>080-084>089-210100-
SOUTHWEST KANSAS

CITY           SKY/WX    TMP DP  RH WIND       PRES   REMARKS
DODGE CITY     LGT RAIN  49  40  71 E10       30.05F
6HR MIN TEMP:  49; 6HR MAX TEMP:  58; 6HR PCP:  0.04;

GARDEN CITY    CLOUDY    50  41  71 E14       30.04S
6HR MIN TEMP:  45; 6HR MAX TEMP:  51; 6HR PCP:  0.07;

GREAT BEND     CLOUDY    56  36  47 E13       30.10F
LIBERAL        CLOUDY    50  41  71 E13       30.00R
$$

KSZ066>073-081>083-090>101-210100-
SOUTHEAST KANSAS

CITY           SKY/WX    TMP DP  RH WIND       PRES   REMARKS
CHANUTE        CLOUDY    63  28  26 E13       30.17F
6HR MIN TEMP:  60; 6HR MAX TEMP:  67;

COFFEYVILLE    CLOUDY    66  32  28 SE8       30.14S
6HR MIN TEMP:  60; 6HR MAX TEMP:  68;

HUTCHINSON     MOSUNNY   62  30  29 E9        30.14R
6HR MIN TEMP:  61; 6HR MAX TEMP:  68;

MEDICINE LODGE   N/A     62  33  33 E12       30.05F
NEWTON         MOSUNNY   61  29  29 SE12      30.14F
PARSONS        CLOUDY    65  28  24 VRB6      30.16S
6HR MIN TEMP:  60; 6HR MAX TEMP:  68;

WICHITA INTL   PTSUNNY   63  28  26 SE20G25   30.11S
6HR MIN TEMP:  60; 6HR MAX TEMP:  68;

WICHITA JABRA  CLOUDY    61  27  27 E17G24    30.11F
6HR MIN TEMP:  60; 6HR MAX TEMP:  67;

WICHITA MCCONL CLOUDY    63  28  26 SE17      30.10F
WINFIELD       CLOUDY    63  29  27 SE13G23   30.10F
6HR MIN TEMP:  61; 6HR MAX TEMP:  67;

$$

KSZ007>012-019>026-033>040-048>060-102>105-210100-
NORTHEAST KANSAS

CITY           SKY/WX    TMP DP  RH WIND       PRES   REMARKS
CONCORDIA      CLOUDY    60  28  29 E7        30.21R
6HR MIN TEMP:  57; 6HR MAX TEMP:  63;

EMPORIA        CLOUDY    61  28  28 SE10      30.18R
6HR MIN TEMP:  59; 6HR MAX TEMP:  65;

LAWRENCE       CLOUDY    62  27  26 E9        30.23S
6HR MIN TEMP:  59; 6HR MAX TEMP:  65;

MANHATTAN      CLOUDY    62  28  27 E10       30.20S
6HR MIN TEMP:  62; 6HR MAX TEMP:  66;

OLATHE IND     CLOUDY    61  26  26 E12       30.23F
6HR MIN TEMP:  58; 6HR MAX TEMP:  64;

OLATHE EXE     CLOUDY    60  27  28 E12       30.23S
6HR MIN TEMP:  55; 6HR MAX TEMP:  62;

SALINA         CLOUDY    63  29  27 E12       30.19R
6HR MIN TEMP:  62; 6HR MAX TEMP:  66;

TOPEKA BILLARD CLOUDY    62  27  26 E13       30.23R
6HR MIN TEMP:  60; 6HR MAX TEMP:  65;

TOPEKA FORBES  CLOUDY    62  28  27 E10       30.22R
6HR MIN TEMP:  61; 6HR MAX TEMP:  65;

$$



USA.gov is the U.S. government's official web portal to all federal, state and local government web resources and services.